Location: Newark
(45.2500°N, 7.5833°E)
Time: 21:00:16
(UTC+00:00)

Vanguard 3 - Pass Details

Date: 26 January 2020
Orbit: 508 x 3263 km, 33.3° (Epoch: 25 February)

Event Time Altitude Azimuth Distance (km) Brightness Sun altitude
Rises 19:01:53 0° 258° (WSW) 7,202 13.2 -27.1°
Reaches altitude 10° 19:06:54 10° 255° (WSW) 6,201 12.5 -27.9°
Maximum altitude 19:25:28 54° 186° (S) 3,202 10.0 -31.2°
Enters shadow 19:31:14 39° 137° (SE) 3,313 9.8 -32.2°
Drops below altitude 10° 19:38:24 10° 114° (ESE) 4,464 - -33.5°
Sets 19:41:22 0° 110° (ESE) 5,144 - -34.0°
